When you browse on this site, cookies collect data to enhance your experience and personalize the content and advertising you see.
Visit our Privacy Policy to learn more. By continuing to use the site, you agree to this use of cookies and data.
  • In Switzerland
  • List of Countries
  • For 7 days
  • Water Temperature
  • Weather Map
  • Weather Widgets
  • user-avatar
    Login

    Hourly Weather Townsville

    Today, 19 October, Saturday

    Time Temperature Precipitation Wind Pressure Humidity
    00:00 +23°C° 0 mm 4 mps 754 mmHg 90%
    01:00 +23°C° 0 mm 4 mps 754 mmHg 91%
    02:00 +24°C° 0 mm 3 mps 754 mmHg 91%
    03:00 +22°C° 0 mm 3 mps 754 mmHg 90%
    04:00 +23°C° 0 mm 2 mps 754 mmHg 91%
    05:00 +24°C° 0 mm 2 mps 755 mmHg 87%
    06:00 +25°C° 0 mm 2 mps 755 mmHg 82%
    07:00 +25°C° 0 mm 2 mps 755 mmHg 78%
    08:00 +27°C° 0 mm 2 mps 755 mmHg 69%
    09:00 +29°C° 0 mm 3 mps 755 mmHg 59%
    10:00 +31°C° 0 mm 3 mps 755 mmHg 50%
    11:00 +33°C° 0 mm 3 mps 755 mmHg 48%
    12:00 +34°C° 0 mm 4 mps 754 mmHg 47%
    13:00 +34°C° 0 mm 4 mps 753 mmHg 45%
    14:00 +33°C° 0 mm 4 mps 753 mmHg 48%
    15:00 +32°C° 0 mm 4 mps 752 mmHg 51%
    16:00 +30°C° 0 mm 4 mps 752 mmHg 54%
    17:00 +28°C° 0 mm 4 mps 752 mmHg 64%
    18:00 +26°C° 0 mm 3 mps 753 mmHg 73%
    19:00 +25°C° 0 mm 3 mps 753 mmHg 83%
    20:00 +24°C° 0 mm 2 mps 754 mmHg 86%
    21:00 +24°C° 0 mm 2 mps 754 mmHg 88%
    22:00 +23°C° 0 mm 2 mps 755 mmHg 91%
    23:00 +23°C° 0 mm 2 mps 755 mmHg 92%

    Tomorrow, 20 October, Sunday

    Time Temperature Precipitation Wind Pressure Humidity
    00:00 +23°C° 0 mm 2 mps 754 mmHg 92%
    01:00 +21°C° 0 mm 2 mps 754 mmHg 92%
    02:00 +21°C° 0 mm 2 mps 754 mmHg 92%
    03:00 +21°C° 0 mm 2 mps 754 mmHg 93%
    04:00 +20°C° 0 mm 2 mps 754 mmHg 93%
    05:00 +22°C° 0 mm 1 mps 754 mmHg 84%
    06:00 +23°C° 0 mm 1 mps 754 mmHg 76%
    07:00 +24°C° 0 mm 1 mps 755 mmHg 68%
    08:00 +27°C° 0 mm 2 mps 755 mmHg 56%
    09:00 +30°C° 0 mm 2 mps 755 mmHg 43%
    10:00 +34°C° 0 mm 2 mps 755 mmHg 31%
    11:00 +34°C° 0 mm 3 mps 754 mmHg 34%
    12:00 +34°C° 0 mm 4 mps 753 mmHg 36%
    13:00 +34°C° 0 mm 5 mps 753 mmHg 39%
    14:00 +33°C° 0 mm 5 mps 752 mmHg 46%
    15:00 +30°C° 0 mm 5 mps 752 mmHg 54%
    16:00 +29°C° 0 mm 5 mps 752 mmHg 61%
    17:00 +28°C° 0 mm 4 mps 752 mmHg 67%
    18:00 +27°C° 0 mm 3 mps 753 mmHg 72%
    19:00 +25°C° 0 mm 3 mps 754 mmHg 78%
    20:00 +25°C° 0 mm 3 mps 754 mmHg 79%
    21:00 +25°C° 0 mm 3 mps 755 mmHg 80%
    22:00 +24°C° 0 mm 3 mps 755 mmHg 82%
    23:00 +24°C° 0 mm 2 mps 755 mmHg 84%

    Day after tomorrow, 21 October, Monday

    Time Temperature Precipitation Wind Pressure Humidity
    00:00 +23°C° 0 mm 2 mps 755 mmHg 85%
    01:00 +23°C° 0 mm 2 mps 754 mmHg 87%
    02:00 +23°C° 0 mm 2 mps 754 mmHg 87%
    03:00 +23°C° 0 mm 2 mps 754 mmHg 87%
    04:00 +21°C° 0 mm 2 mps 754 mmHg 87%
    05:00 +23°C° 0 mm 2 mps 755 mmHg 83%
    06:00 +24°C° 0 mm 2 mps 755 mmHg 79%
    07:00 +25°C° 0 mm 2 mps 755 mmHg 75%
    08:00 +26°C° 0.1 mm 2 mps 756 mmHg 70%
    09:00 +27°C° 0.1 mm 3 mps 756 mmHg 65%
    10:00 +28°C° 0.1 mm 4 mps 756 mmHg 60%
    11:00 +29°C° 0.1 mm 4 mps 755 mmHg 56%
    12:00 +30°C° 0.1 mm 5 mps 755 mmHg 51%
    13:00 +32°C° 0.1 mm 6 mps 754 mmHg 47%
    14:00 +32°C° 0 mm 6 mps 754 mmHg 49%
    15:00 +30°C° 0 mm 7 mps 754 mmHg 51%
    16:00 +29°C° 0 mm 7 mps 754 mmHg 53%
    17:00 +28°C° 0 mm 6 mps 754 mmHg 62%
    18:00 +26°C° 0 mm 6 mps 755 mmHg 70%
    19:00 +25°C° 0 mm 5 mps 756 mmHg 78%
    20:00 +23°C° 0 mm 6 mps 756 mmHg 80%
    21:00 +23°C° 0 mm 6 mps 756 mmHg 81%
    22:00 +22°C° 0 mm 6 mps 757 mmHg 83%
    23:00 +22°C° 0 mm 6 mps 756 mmHg 83%

    22 October, Tuesday

    Time Temperature Precipitation Wind Pressure Humidity
    00:00 +22°C° 0 mm 6 mps 756 mmHg 84%
    01:00 +22°C° 0 mm 5 mps 756 mmHg 84%
    02:00 +21°C° 0 mm 5 mps 756 mmHg 84%
    03:00 +21°C° 0 mm 5 mps 756 mmHg 85%
    04:00 +21°C° 0 mm 5 mps 756 mmHg 85%
    05:00 +22°C° 0 mm 5 mps 756 mmHg 81%
    06:00 +22°C° 0 mm 5 mps 757 mmHg 77%
    07:00 +23°C° 0 mm 5 mps 757 mmHg 74%
    08:00 +24°C° 0.1 mm 6 mps 757 mmHg 67%
    09:00 +26°C° 0.1 mm 6 mps 757 mmHg 61%
    10:00 +27°C° 0.1 mm 6 mps 757 mmHg 55%
    11:00 +28°C° 0 mm 7 mps 757 mmHg 52%
    12:00 +29°C° 0 mm 7 mps 756 mmHg 49%
    13:00 +29°C° 0 mm 7 mps 756 mmHg 46%
    14:00 +29°C° 0 mm 7 mps 755 mmHg 49%
    15:00 +28°C° 0 mm 7 mps 755 mmHg 51%
    16:00 +27°C° 0 mm 7 mps 754 mmHg 54%
    17:00 +26°C° 0 mm 7 mps 755 mmHg 59%
    18:00 +24°C° 0 mm 6 mps 755 mmHg 64%
    19:00 +23°C° 0 mm 6 mps 756 mmHg 68%
    20:00 +22°C° 0 mm 6 mps 756 mmHg 72%
    21:00 +22°C° 0 mm 5 mps 757 mmHg 75%
    22:00 +21°C° 0 mm 5 mps 757 mmHg 79%
    23:00 +21°C° 0.2 mm 5 mps 757 mmHg 80%

    23 October, Wednesday

    Time Temperature Precipitation Wind Pressure Humidity
    00:00 +21°C° 0.2 mm 5 mps 757 mmHg 82%
    01:00 +20°C° 0.2 mm 5 mps 756 mmHg 83%
    02:00 +20°C° 0.1 mm 5 mps 756 mmHg 85%
    03:00 +19°C° 0.1 mm 5 mps 756 mmHg 86%
    04:00 +19°C° 0.1 mm 5 mps 756 mmHg 88%
    05:00 +19°C° 0 mm 5 mps 756 mmHg 85%
    06:00 +20°C° 0 mm 5 mps 756 mmHg 82%
    07:00 +20°C° 0 mm 4 mps 757 mmHg 79%
    08:00 +23°C° 0 mm 5 mps 757 mmHg 68%
    09:00 +26°C° 0 mm 5 mps 756 mmHg 57%
    10:00 +29°C° 0 mm 6 mps 756 mmHg 46%
    11:00 +29°C° 0 mm 6 mps 756 mmHg 46%
    12:00 +29°C° 0 mm 7 mps 755 mmHg 46%
    13:00 +31°C° 0 mm 8 mps 754 mmHg 46%
    14:00 +29°C° 0 mm 8 mps 754 mmHg 48%
    15:00 +29°C° 0 mm 8 mps 754 mmHg 51%
    16:00 +28°C° 0 mm 8 mps 753 mmHg 54%
    17:00 +26°C° 0 mm 7 mps 754 mmHg 61%
    18:00 +24°C° 0 mm 7 mps 754 mmHg 68%
    19:00 +22°C° 0 mm 6 mps 755 mmHg 74%
    20:00 +22°C° 0 mm 6 mps 755 mmHg 76%
    21:00 +21°C° 0 mm 6 mps 756 mmHg 77%
    22:00 +21°C° 0 mm 6 mps 756 mmHg 78%
    23:00 +20°C° 0 mm 5 mps 756 mmHg 80%

    24 October, Thursday

    Time Temperature Precipitation Wind Pressure Humidity
    00:00 +20°C° 0 mm 5 mps 756 mmHg 81%
    01:00 +20°C° 0 mm 5 mps 755 mmHg 83%
    02:00 +19°C° 0 mm 4 mps 755 mmHg 83%
    03:00 +19°C° 0 mm 4 mps 755 mmHg 84%
    04:00 +19°C° 0 mm 4 mps 755 mmHg 84%
    05:00 +19°C° 0 mm 3 mps 755 mmHg 81%
    06:00 +20°C° 0 mm 3 mps 756 mmHg 77%
    07:00 +21°C° 0 mm 3 mps 756 mmHg 73%
    08:00 +23°C° 0 mm 4 mps 756 mmHg 63%
    09:00 +26°C° 0 mm 4 mps 756 mmHg 53%
    10:00 +28°C° 0 mm 4 mps 756 mmHg 43%
    11:00 +29°C° 0 mm 5 mps 755 mmHg 43%
    12:00 +29°C° 0 mm 6 mps 755 mmHg 43%
    13:00 +30°C° 0 mm 6 mps 754 mmHg 43%
    14:00 +29°C° 0 mm 6 mps 753 mmHg 46%
    15:00 +29°C° 0 mm 6 mps 753 mmHg 48%
    16:00 +28°C° 0 mm 6 mps 753 mmHg 50%
    17:00 +26°C° 0 mm 6 mps 753 mmHg 58%
    18:00 +25°C° 0 mm 5 mps 753 mmHg 66%
    19:00 +22°C° 0 mm 5 mps 754 mmHg 74%
    20:00 +22°C° 0 mm 5 mps 754 mmHg 75%
    21:00 +22°C° 0 mm 5 mps 755 mmHg 75%
    22:00 +21°C° 0 mm 5 mps 755 mmHg 76%
    23:00 +21°C° 0 mm 4 mps 755 mmHg 77%
    Show more